Tracking 25734 objects as of 26-May-2022
HD Live streaming from Space Station
objects crossing your sky now

COSMOS 413

Track COSMOS 413 now!
10-day predictions
COSMOS 413 is classified as:


NORAD ID: 5212
Int'l Code: 1971-041C
Perigee: 1,480.3 km
Apogee: 1,514.9 km
Inclination: 74.0 °
Period: 115.8 minutes
Semi major axis: 7868 km
RCS: 0.726 m2 (medium)
Launch date: May 7, 1971
Source: Commonwealth of Independent States (former USSR) (CIS)
Launch site: PLESETSK MISSILE AND SPACE COMPLEX (PKMTR)
aabbcc
Your satellite tracking list
Your tracking list is empty




NASA's NSSDC Master Catalog

Two Line Element Set (TLE):
1  5212U 71041C   22145.79481322 -.00000029  00000-0 -95104-4 0  9999
2  5212  74.0174  57.9614 0022010 239.0797 177.8911 12.43821529318248
Source of the keplerian elements: AFSPC